GFSFLT1_2pvu_pres_111.txt.gz
Presure
200 198 148 180 195 214 154 213 215 190 192 186 188 191 179 136 172 192 177 191 202 211 206 228 251 244 243 219 193 189 226 239
159 201 198 192 168 201 226 194 209 190 189 203 198 175 178 188 202 174 182 204 197 210 204 214 251 239 247 211 195 220 236 265
187 193 198 197 186 201 199 204 189 192 183 192 184 174 179 179 186 175 192 198 195 201 208 218 241 235 244 204 186 217 226 230
190 194 188 199 194 201 195 203 200 191 188 189 191 183 177 165 179 182 187 185 177 199 212 220 244 234 240 207 201 232 319 243
195 187 196 196 191 172 193 205 197 197 200 198 200 190 181 187 180 181 186 190 199 201 214 225 250 235 240 203 206 222 321 237
189 189 188 177 186 191 190 188 196 199 183 181 183 181 185 183 187 198 152 194 207 205 212 234 250 237 236 202 206 226 240 237
203 190 181 179 181 180 189 194 192 166 179 149 192 184 196 190 190 174 202 207 212 225 224 236 246 256 233 203 202 225 243 223
206 136 204 181 176 189 196 78 171 183 176 188 179 187 185 182 176 195 197 202 213 214 231 237 210 239 226 204 227 260 238 217
220 200 201 193 197 191 183 180 191 189 183 181 188 150 125 203 209 193 200 214 202 197 244 253 250 231 217 203 190 220 230 216
215 215 220 173 201 174 205 192 189 177 185 181 190 198 184 214 153 204 193 200 203 230 229 253 256 223 215 198 197 219 223 222
218 218 217 208 203 116 183 205 201 160 166 193 168 204 207 220 192 194 216 218 224 240 236 244 245 218 209 188 201 195 275 220
225 222 216 224 223 219 208 190 158 198 207 183 215 215 187 193 202 215 210 198 232 243 230 237 241 216 201 196 193 198 223 268
227 246 224 228 229 225 206 195 196 196 191 149 194 221 211 192 171 204 186 233 238 142 242 234 233 214 193 192 189 192 193 216
245 243 232 222 217 218 218 223 208 196 201 143 199 127 196 171 212 223 215 225 236 237 263 239 229 211 203 189 189 194 192 187
235 236 238 221 217 218 222 219 209 204 209 212 207 207 209 201 208 201 207 232 230 252 253 244 228 213 203 185 190 187 186 188
240 248 253 251 222 221 223 216 207 218 213 215 223 227 240 249 245 233 247 242 257 246 241 254 223 213 197 186 189 188 190 192
235 231 236 236 233 229 227 226 219 216 230 249 250 247 233 211 245 238 248 260 248 229 267 264 218 211 184 201 181 193 186 183
224 229 230 229 232 243 244 242 245 250 257 271 268 260 262 255 234 229 221 226 232 256 253 238 215 209 196 200 191 185 191 176
227 229 243 235 233 235 238 247 250 255 246 263 271 267 273 286 241 236 230 225 249 252 246 227 216 205 193 185 200 184 184 190

GFSFLT1_2pvu_pres_114.txt.gz
Presure
214 217 199 195 194 142 193 199 198 223 219 216 220 199 193 193 188 190 183 180 170 161 162 183 187 194 196 214 250 250 237 208
152 212 211 197 193 195 198 200 188 161 207 197 187 223 200 194 187 176 191 171 183 180 183 188 192 192 187 204 253 242 238 210
218 162 144 228 210 199 195 188 201 201 198 213 188 210 206 193 197 188 182 184 163 183 182 145 185 197 213 211 255 240 184 205
204 219 177 161 204 195 197 195 187 185 189 201 200 180 185 176 175 189 191 192 183 179 182 181 186 198 217 235 256 242 229 205
217 210 205 199 197 196 191 197 184 178 205 193 184 192 189 188 158 180 182 181 184 188 181 157 204 203 215 228 256 242 235 206
222 216 210 209 201 202 184 195 191 197 203 191 208 213 210 200 199 183 193 189 181 177 194 171 198 203 210 215 253 252 230 205
237 229 220 202 197 200 187 183 193 187 173 182 180 187 189 205 195 193 194 189 187 189 196 182 196 213 203 227 251 248 224 208
237 226 224 209 198 191 193 184 180 195 184 182 175 176 179 168 159 169 174 187 182 186 198 207 195 212 202 238 261 243 214 208
223 228 225 219 206 205 205 198 179 179 192 191 175 183 182 185 148 179 180 176 186 179 209 193 199 203 201 238 267 235 221 205
230 232 226 226 215 204 203 194 207 185 167 169 167 182 197 204 192 190 187 192 197 189 183 201 194 213 215 244 262 229 209 203
240 227 226 225 218 205 200 203 200 200 188 167 173 181 193 185 173 189 111 189 199 195 213 208 204 219 206 248 250 219 202 202
237 230 227 226 216 211 206 204 203 195 201 200 152 168 183 193 192 175 205 205 126 199 214 213 207 214 220 242 243 217 203 201
223 237 229 223 224 224 220 214 214 211 94 199 204 187 177 222 120 131 126 193 211 196 224 205 216 207 213 244 239 216 201 192
234 236 227 221 221 224 224 225 221 215 218 214 219 195 203 194 201 203 164 188 195 144 192 200 212 220 222 249 234 214 202 192
244 245 261 231 229 227 230 224 224 222 220 230 234 226 179 189 207 202 207 203 166 172 206 177 190 213 226 254 235 214 204 193
236 235 257 257 232 215 212 215 226 231 228 226 217 223 222 227 221 201 199 202 202 204 201 217 211 205 221 255 238 213 203 193
231 234 226 230 234 238 239 246 252 239 233 224 222 224 224 224 222 211 220 206 235 217 215 214 210 216 226 287 243 214 201 201
225 223 227 231 223 225 226 227 242 251 243 228 224 231 231 221 223 222 226 235 233 164 229 227 230 235 251 259 248 217 205 200
225 227 237 246 245 246 248 238 234 235 236 232 227 234 238 244 253 262 270 266 254 243 235 241 247 255 261 237 250 219 208 198

GFSFLT1_2pvu_pres_117.txt.gz
Presure
270 110 201 215 200 196 203 201 192 159 180 199 193 192 191 180 204 208 201 193 160 181 187 186 180 187 185 186 184 185 198 221
242 243 230 221 217 197 207 184 139 197 192 191 135 76 234 225 204 212 195 176 200 195 181 186 191 180 176 182 183 182 200 222
255 232 239 160 175 210 197 206 196 196 186 193 193 213 196 216 197 192 145 183 204 192 199 188 182 186 177 184 191 192 205 216
262 218 258 242 223 212 208 174 156 200 166 188 192 146 197 174 187 181 187 197 197 193 184 183 193 188 180 187 189 195 206 216
261 258 249 242 227 195 208 193 182 200 201 194 193 205 194 192 191 174 178 191 183 172 185 195 182 176 189 172 192 198 205 208
261 274 245 234 221 215 199 207 193 203 198 197 200 177 191 159 206 199 184 191 187 184 180 183 198 181 184 191 199 210 204 213
259 268 240 241 229 212 205 207 206 195 201 198 199 188 203 191 183 191 192 197 195 184 186 186 201 190 185 187 186 211 206 211
275 259 241 237 230 216 204 209 202 186 184 182 186 190 189 201 201 184 169 209 189 202 197 181 178 175 182 192 184 210 211 216
275 256 239 235 225 214 210 206 205 206 197 182 182 177 173 178 187 185 175 170 168 175 179 182 180 188 194 189 196 211 201 214
253 255 243 238 230 222 215 210 207 209 195 198 185 186 175 184 179 188 200 173 177 187 176 183 122 185 193 162 202 223 213 217
249 245 241 227 234 227 219 215 210 210 205 194 187 185 185 182 188 180 162 185 175 170 175 193 182 178 182 198 211 206 213 213
195 230 244 237 234 232 227 223 217 216 194 197 196 192 184 181 181 177 187 162 169 178 118 186 190 212 184 199 213 220 209 210
248 255 264 240 235 232 217 221 219 217 208 194 195 92 195 199 191 185 175 151 169 175 171 126 136 200 110 201 216 225 201 201
263 289 225 234 245 226 222 224 223 221 222 209 201 195 103 194 193 116 139 197 147 202 180 205 203 206 209 223 194 194 217 216
243 263 228 251 240 235 229 232 224 218 224 220 208 204 202 201 206 204 191 206 190 188 190 199 171 163 172 196 214 194 202 225
246 253 261 237 243 238 235 228 224 224 226 222 220 215 216 214 212 214 209 208 193 207 193 193 192 192 199 123 196 206 210 226
239 234 233 244 247 243 243 224 235 232 225 226 232 234 237 231 231 231 231 223 226 222 206 202 196 196 146 201 201 220 206 206
228 229 231 237 244 242 246 231 229 230 222 218 231 236 233 223 222 229 220 228 214 222 221 207 210 209 212 208 217 213 203 225
229 225 225 226 227 232 242 240 241 243 245 225 224 203 256 240 231 248 252 236 231 226 212 204 211 240 223 221 222 228 225 224

GFSFLT1_2pvu_pres_120.txt.gz
Presure
209 206 226 121 122 126 127 149 171 198 200 201 201 200 204 200 156 196 144 192 157 151 211 201 204 198 158 189 190 197 146 185
212 139 242 126 139 271 214 139 226 219 197 194 193 203 200 195 172 201 199 198 225 211 203 208 157 191 199 193 190 183 184 195
221 206 232 263 212 208 226 225 235 154 205 203 173 201 200 196 192 183 195 199 231 204 213 209 201 206 200 187 192 199 199 182
150 238 250 254 284 222 254 257 235 223 214 208 198 198 202 203 155 196 197 162 215 188 192 170 191 179 182 185 179 181 163 187
284 277 297 310 360 203 251 248 231 217 218 205 201 192 202 169 186 189 167 184 195 179 174 175 179 186 187 184 184 194 195 187
350 346 340 355 354 301 248 239 222 212 215 209 202 196 201 197 194 192 194 191 189 201 197 189 183 187 198 191 185 182 186 198
333 330 333 323 300 256 252 218 225 219 214 194 202 196 190 191 204 194 193 179 170 182 187 195 196 207 206 194 181 196 183 178
312 309 312 315 217 251 242 227 241 220 212 206 209 202 195 195 198 204 204 188 170 172 189 197 199 191 203 158 202 187 125 190
299 296 288 270 254 259 279 230 232 207 213 204 196 201 198 192 198 194 200 195 195 179 178 168 173 189 169 177 184 180 189 191
297 289 281 276 292 248 247 232 221 220 200 207 202 196 200 192 200 184 185 187 188 179 208 179 177 173 168 156 168 181 179 182
284 283 280 261 266 235 259 239 224 220 215 204 202 201 199 192 186 186 191 180 179 172 179 178 187 180 173 183 170 185 187 194
280 270 281 258 251 232 261 243 232 225 224 209 203 201 196 197 191 177 184 181 178 183 182 159 187 182 158 176 168 182 184 183
274 248 259 268 227 259 249 236 230 235 231 218 211 202 201 195 195 192 200 195 184 183 182 148 176 184 171 176 175 131 179 190
238 267 252 210 233 248 252 237 228 229 226 221 209 209 203 201 200 200 195 192 187 187 181 182 125 175 172 180 182 182 181 201
260 257 252 259 223 245 252 238 230 223 227 222 217 209 207 203 203 204 116 196 193 183 175 182 101 147 187 151 174 184 175 185
233 247 232 229 253 231 228 235 236 226 220 223 223 218 211 210 209 209 205 196 196 202 205 205 206 208 198 145 203 201 202 158
224 226 236 237 248 251 224 231 242 256 232 228 228 224 226 224 216 214 208 207 207 203 204 203 203 199 195 204 198 204 146 175
232 251 245 244 244 236 235 238 243 233 243 241 225 223 209 219 222 222 221 219 213 205 204 204 204 206 205 217 213 212 197 211
239 225 236 227 231 236 237 240 234 232 229 235 247 248 232 231 231 224 223 226 226 224 224 227 231 234 232 211 215 165 181 198